Wind_Speed
38 34 32 28 27 20 20 14 14 11 9 9 6 3 3 4 4 4 4 5 5 6 6 7 7 9 12 13 17 18 20 24 26 30 30 35 38 32 29 29 30 29 28
43 38 37 33 31 25 22 18 15 12 10 12 11 11 12 10 8 6 6 5 6 8 8 9 10 11 11 13 14 17 19 21 21 25 30 34 34 34 29 32 29 30 31
45 44 40 35 33 30 27 22 17 16 15 18 16 16 14 14 11 10 10 12 11 10 10 11 12 13 15 16 17 17 19 20 21 23 24 26 28 27 26 26 22 25 30
49 27 38 36 37 30 29 25 21 20 19 20 20 18 19 22 21 19 19 17 16 15 14 13 14 16 17 18 18 19 20 20 21 22 23 26 27 26 26 27 27 29 27
62 18 42 40 44 33 31 29 25 23 23 24 24 20 20 28 26 22 23 24 22 20 19 19 16 17 18 19 19 21 22 22 23 24 25 27 28 28 28 26 24 23 24
37 26 35 36 44 37 37 37 34 30 28 28 27 24 24 22 23 26 22 24 24 22 23 25 25 21 19 20 21 22 24 25 24 23 25 26 26 27 29 28 25 24 23
44 34 37 30 33 31 46 43 37 37 37 34 29 26 26 25 27 28 26 24 25 26 29 33 26 26 22 21 21 23 26 26 25 25 24 24 23 26 27 27 25 25 23
41 39 40 36 27 26 44 42 41 37 44 37 28 29 28 31 29 31 29 23 24 24 26 26 22 20 22 24 26 24 25 27 25 25 26 22 23 24 27 27 25 24 22
31 25 22 24 27 24 28 29 33 25 38 36 30 30 29 31 30 33 32 24 24 25 23 24 28 32 33 32 28 28 28 27 28 25 27 28 29 30 29 29 27 25 24
19 21 23 21 28 28 31 28 27 29 34 32 35 31 31 31 29 31 29 25 26 27 29 30 32 32 35 38 37 32 31 27 27 29 26 27 29 32 30 30 29 27 24
25 31 27 18 22 22 18 19 20 21 28 30 31 31 31 32 30 30 29 26 27 28 30 31 34 34 38 38 39 37 30 27 25 27 26 28 27 30 32 29 27 27 27
20 25 26 22 21 18 19 20 23 25 26 27 28 30 34 35 32 31 33 32 30 29 33 33 36 38 41 37 37 39 34 30 29 28 32 29 30 29 32 30 27 26 26
17 23 19 20 20 23 23 22 22 24 27 29 33 35 36 35 32 31 32 33 32 30 36 37 40 39 42 44 42 41 38 33 31 31 29 26 26 25 28 28 30 27 25
29 28 26 27 27 26 27 29 31 32 35 35 34 34 34 34 32 33 32 36 36 35 35 41 41 47 55 51 47 46 40 33 32 36 33 33 28 27 23 22 24 27 24
31 34 31 31 34 34 33 33 36 38 39 38 36 36 34 33 35 35 36 38 39 38 38 39 42 47 42 42 42 46 43 36 33 35 34 30 28 28 28 28 28 31 31
31 34 35 35 37 38 38 39 39 36 38 35 33 33 35 36 36 36 37 38 39 38 38 36 40 35 39 41 43 48 42 40 35 36 34 33 34 31 28 28 30 31 32
28 28 29 34 37 38 38 37 36 34 34 34 33 35 35 36 38 39 40 38 40 40 38 34 33 34 34 40 44 48 44 42 39 37 33 34 36 35 34 32 31 30 31
30 32 31 32 33 35 36 37 38 37 37 36 36 37 38 38 39 42 43 41 41 40 36 37 32 32 38 40 44 46 46 48 43 37 34 33 35 35 33 32 33 33 33
37 37 37 37 38 37 38 39 39 38 37 37 37 37 38 38 40 43 45 43 42 37 36 39 36 28 31 43 47 52 53 41 42 37 35 35 35 35 34 34 33 32 31
34 35 38 40 39 39 37 37 38 39 38 37 37 37 38 40 40 40 39 38 37 35 33 29 28 34 33 32 34 37 38 44 45 36 36 34 30 27 25 25 25 25 24
32 31 30 30 31 32 33 35 36 36 36 36 36 39 42 41 36 32 35 33 31 31 32 37 41 42 43 41 46 46 43 40 39 32 29 27 25 25 23 21 22 22 23
27 27 30 30 30 30 30 31 32 31 32 32 30 30 32 32 31 29 31 38 28 29 34 42 46 42 41 36 46 45 38 32 31 31 28 23 21 22 20 19 22 24 27
29 30 29 30 30 28 28 28 26 24 24 25 25 23 25 24 24 24 31 33 31 26 31 35 37 30 33 37 42 38 30 26 21 22 22 19 17 20 22 25 28 30 31
30 31 31 28 26 24 25 22 21 20 21 20 18 19 18 18 21 22 20 24 23 27 34 35 29 27 25 22 22 20 23 23 20 15 14 18 23 25 26 26 26 28 30
21 21 22 25 24 23 21 21 20 19 19 19 17 18 17 18 15 17 16 15 18 20 23 23 23 24 23 25 27 25 19 19 15 13 18 23 23 21 22 25 27 29 32
21 20 19 20 19 19 19 18 19 20 20 18 16 17 15 22 22 24 27 17 23 22 20 18 21 19 16 15 13 11 10 12 15 16 18 18 20 21 24 27 30 32 34
Wind_Direction
249 256 265 261 263 256 259 261 259 266 268 264 245 242 238 252 267 270 299 317 319 297 288 284 279 272 272 272 268 267 269 266 267 265 270 271 275 277 277 270 273 275 272
248 251 258 265 257 256 251 260 254 252 254 253 246 230 239 248 249 262 265 264 278 289 289 287 282 276 271 268 268 269 270 269 265 265 269 268 268 265 273 269 268 270 264
235 239 249 261 264 255 256 253 249 243 236 242 246 262 277 270 255 257 267 268 262 257 267 275 277 277 275 270 267 264 263 262 265 266 270 269 264 265 262 261 271 271 262
255 222 239 247 254 254 255 255 246 244 241 247 245 242 261 273 280 286 285 281 274 275 278 274 273 276 275 271 268 270 271 269 263 263 265 268 268 270 270 271 268 267 271
262 217 221 234 241 245 241 245 243 243 245 246 252 250 254 273 275 275 269 259 266 272 272 275 271 272 277 282 280 275 274 271 270 273 276 274 273 271 269 269 271 273 276
255 227 219 237 245 235 227 233 235 236 242 247 255 263 269 272 266 279 294 282 273 269 285 270 270 271 268 270 276 276 274 272 270 275 276 280 275 275 275 272 270 271 273
295 284 290 301 257 238 226 224 230 232 238 242 248 258 268 273 267 276 283 280 283 276 280 279 247 261 270 273 271 270 273 275 275 271 271 270 272 270 270 266 265 267 267
287 287 284 298 298 266 251 240 236 242 230 237 242 254 263 267 269 277 282 277 271 281 286 264 238 253 271 277 277 276 272 272 270 269 266 263 262 266 265 264 262 260 260
285 275 278 280 275 276 258 261 254 267 219 229 238 249 255 262 271 275 277 278 276 277 277 263 259 267 273 277 270 270 272 269 268 267 267 264 264 261 264 265 261 260 257
260 251 254 257 266 268 255 235 248 235 217 221 234 245 256 258 258 259 261 266 265 266 268 266 264 268 273 276 275 262 266 271 272 270 271 272 269 268 267 269 264 259 247
253 249 250 241 252 241 211 198 197 206 211 224 238 247 254 261 265 267 270 276 276 271 266 262 264 267 268 271 276 260 260 261 266 269 277 274 270 271 267 265 262 263 261
253 245 241 207 210 213 209 209 216 223 238 249 254 260 265 267 267 271 275 278 284 287 278 268 264 264 260 265 266 254 254 256 262 265 274 273 276 277 271 264 265 267 265
242 231 229 218 221 232 227 239 244 248 251 256 263 263 265 267 269 269 278 282 289 287 283 280 281 267 265 264 263 240 247 252 263 271 267 269 265 271 277 276 273 270 270
254 241 237 235 234 238 243 246 252 256 258 261 267 268 262 262 267 273 275 279 284 282 280 282 278 277 273 265 251 239 240 247 255 267 269 269 264 268 261 264 262 262 262
252 253 252 253 250 250 253 256 261 267 268 262 264 262 260 260 261 265 271 273 276 278 278 281 283 286 264 249 242 238 241 246 253 263 265 262 256 254 257 256 258 264 267
266 259 259 261 263 261 263 265 270 265 267 263 257 253 256 259 263 264 266 270 273 276 274 276 287 272 261 245 238 238 243 247 252 260 263 255 255 256 257 260 263 264 265
269 265 267 265 263 261 259 258 259 257 257 259 260 262 264 265 266 266 268 271 273 273 274 272 276 262 260 251 246 243 240 247 251 256 257 255 252 255 260 263 265 267 269
276 273 266 264 261 262 262 262 263 265 267 268 268 270 270 269 270 270 271 273 271 276 276 273 272 276 261 250 244 244 242 244 244 245 252 255 258 262 265 269 271 270 271
274 272 271 269 268 265 265 266 267 267 267 269 269 267 265 263 265 268 271 272 270 272 278 275 264 271 265 251 251 246 248 244 244 238 247 252 257 264 267 269 269 270 272
281 277 274 273 274 274 272 271 268 267 267 266 267 268 267 268 272 273 271 268 266 268 271 262 263 269 263 257 241 243 230 228 240 248 246 249 252 254 257 262 266 266 269
285 284 280 276 277 279 279 278 277 274 269 268 265 261 261 264 262 268 264 258 257 259 261 268 277 269 259 251 243 237 236 245 256 252 249 244 247 251 257 265 268 269 272
287 289 288 284 282 282 281 280 282 287 286 284 282 276 266 267 269 266 259 256 248 256 260 253 258 260 269 253 238 233 245 254 246 244 245 245 254 263 269 274 275 275 276
283 282 286 287 286 286 289 289 289 290 289 287 280 274 270 265 264 257 244 257 264 251 237 234 242 254 263 269 259 242 237 237 237 238 237 249 272 282 281 277 275 276 277
278 275 281 287 289 285 285 284 291 288 286 285 283 277 269 266 257 258 265 253 251 251 253 258 249 249 246 242 238 238 239 241 245 259 272 268 263 263 269 274 278 281 282
285 287 283 279 282 283 281 275 266 266 267 275 274 281 272 243 205 220 223 248 219 212 214 216 232 241 241 246 249 253 279 302 315 291 267 264 264 269 276 281 284 286 288
291 289 289 288 285 280 278 278 271 264 257 251 247 249 252 269 281 289 290 257 244 257 262 250 250 259 267 283 301 291 270 259 259 263 267 275 285 289 288 288 289 290 290
Height
5841 5844 5845 5844 5843 5845 5847 5847 5849 5849 5849 5847 5844 5843 5843 5842 5842 5840 5840 5842 5843 5843 5841 5840 5841 5842 5843 5843 5845 5845 5845 5846 5847 5848 5849 5849 5849 5849 5847 5849 5849 5850 5849
5831 5834 5837 5839 5838 5838 5840 5842 5844 5843 5845 5844 5843 5838 5837 5836 5835 5835 5836 5836 5837 5839 5840 5840 5839 5839 5839 5839 5838 5839 5840 5840 5840 5840 5840 5841 5841 5841 5841 5841 5841 5842 5842
5822 5821 5824 5833 5832 5833 5836 5835 5838 5837 5838 5839 5838 5838 5839 5836 5832 5831 5830 5830 5831 5831 5833 5834 5834 5834 5834 5834 5834 5835 5834 5833 5833 5833 5833 5832 5833 5833 5833 5834 5834 5834 5835
5779 5783 5812 5823 5827 5825 5832 5832 5831 5831 5831 5834 5833 5831 5833 5833 5831 5829 5828 5828 5826 5826 5827 5827 5829 5830 5831 5830 5830 5830 5829 5828 5827 5826 5826 5826 5825 5825 5826 5826 5827 5826 5827
5775 5767 5797 5810 5815 5817 5823 5826 5825 5825 5825 5826 5827 5826 5825 5828 5827 5825 5823 5822 5822 5822 5822 5822 5821 5822 5823 5824 5825 5824 5824 5823 5821 5821 5820 5819 5819 5819 5819 5819 5819 5819 5819
5796 5791 5794 5801 5805 5808 5811 5815 5816 5816 5818 5819 5821 5823 5821 5821 5822 5820 5818 5817 5816 5817 5817 5817 5817 5816 5815 5817 5819 5819 5818 5818 5816 5815 5813 5812 5811 5811 5812 5812 5812 5812 5813
5787 5789 5799 5800 5795 5795 5801 5805 5808 5807 5809 5810 5812 5817 5817 5815 5813 5812 5812 5811 5810 5810 5810 5809 5808 5810 5810 5811 5811 5811 5811 5811 5809 5809 5808 5806 5806 5805 5805 5804 5805 5805 5806
5787 5785 5787 5790 5788 5788 5793 5795 5794 5795 5800 5803 5804 5809 5811 5810 5808 5805 5805 5803 5802 5801 5801 5798 5802 5803 5804 5804 5804 5804 5803 5803 5802 5801 5801 5801 5800 5799 5799 5799 5798 5799 5800
5769 5771 5775 5779 5781 5784 5784 5784 5783 5784 5788 5795 5797 5801 5803 5803 5801 5797 5797 5797 5795 5794 5794 5795 5795 5796 5796 5796 5795 5796 5795 5795 5795 5794 5793 5793 5793 5791 5792 5791 5791 5791 5792
5762 5765 5766 5766 5770 5772 5773 5775 5776 5773 5780 5786 5789 5792 5793 5795 5795 5794 5792 5791 5789 5787 5787 5788 5788 5789 5789 5787 5788 5787 5787 5788 5788 5788 5786 5785 5785 5785 5783 5785 5785 5784 5785
5756 5757 5759 5757 5762 5763 5766 5768 5770 5774 5776 5779 5782 5783 5784 5785 5783 5783 5781 5782 5781 5778 5779 5779 5779 5780 5780 5779 5779 5780 5780 5779 5779 5781 5780 5779 5777 5778 5778 5778 5779 5780 5780
5750 5752 5754 5753 5756 5759 5761 5762 5765 5768 5770 5771 5770 5772 5773 5773 5772 5772 5771 5770 5768 5768 5769 5768 5769 5770 5769 5768 5768 5772 5773 5772 5773 5772 5775 5773 5772 5771 5773 5772 5774 5774 5774
5743 5745 5747 5749 5749 5754 5756 5759 5759 5759 5760 5760 5760 5762 5762 5761 5762 5762 5761 5760 5758 5758 5758 5757 5758 5757 5757 5760 5760 5758 5762 5762 5764 5765 5766 5766 5766 5765 5766 5765 5766 5766 5767
5739 5739 5741 5743 5745 5748 5750 5751 5752 5752 5753 5753 5752 5753 5752 5752 5752 5752 5752 5751 5749 5748 5748 5747 5747 5746 5743 5744 5746 5749 5750 5752 5754 5757 5757 5759 5758 5758 5758 5758 5758 5758 5760
5734 5733 5734 5736 5738 5738 5740 5743 5743 5742 5742 5742 5743 5743 5744 5744 5743 5742 5743 5742 5741 5739 5736 5736 5733 5729 5727 5729 5734 5739 5741 5742 5743 5745 5746 5748 5749 5749 5750 5750 5750 5751 5752
5727 5728 5728 5727 5727 5727 5728 5730 5730 5730 5730 5730 5730 5732 5733 5734 5732 5732 5732 5730 5729 5728 5726 5723 5719 5718 5720 5720 5723 5726 5731 5733 5734 5737 5737 5737 5738 5739 5738 5739 5740 5742 5743
5715 5716 5716 5716 5717 5716 5717 5718 5718 5719 5719 5720 5719 5718 5720 5720 5720 5719 5718 5718 5718 5717 5716 5713 5710 5710 5710 5712 5713 5716 5718 5722 5724 5726 5726 5728 5729 5729 5730 5731 5731 5731 5731
5707 5707 5707 5707 5707 5707 5706 5707 5707 5707 5706 5705 5706 5706 5707 5706 5706 5706 5705 5706 5707 5707 5707 5706 5705 5703 5702 5702 5703 5704 5705 5708 5710 5712 5714 5716 5718 5718 5719 5719 5720 5720 5720
5696 5696 5696 5695 5696 5695 5694 5694 5693 5694 5693 5693 5694 5694 5694 5693 5694 5695 5695 5695 5696 5696 5696 5694 5693 5693 5692 5692 5692 5694 5694 5695 5698 5700 5701 5703 5705 5706 5706 5708 5708 5709 5709
5684 5684 5683 5683 5682 5682 5681 5681 5680 5681 5681 5681 5681 5681 5682 5683 5682 5682 5684 5684 5684 5684 5683 5682 5684 5684 5683 5681 5683 5684 5685 5687 5687 5689 5690 5691 5692 5695 5697 5697 5698 5698 5698
5673 5673 5673 5672 5672 5671 5671 5671 5671 5672 5672 5672 5671 5672 5673 5673 5673 5672 5672 5671 5673 5673 5673 5672 5673 5676 5674 5671 5672 5672 5676 5680 5680 5681 5683 5683 5684 5685 5687 5688 5689 5689 5690
5670 5668 5667 5666 5665 5666 5665 5663 5661 5661 5660 5660 5660 5660 5660 5660 5660 5660 5661 5660 5661 5663 5664 5664 5665 5666 5667 5665 5665 5666 5669 5670 5672 5674 5674 5675 5676 5677 5678 5680 5681 5681 5681
5664 5663 5661 5660 5659 5657 5657 5655 5654 5653 5653 5652 5651 5650 5650 5651 5651 5653 5653 5651 5652 5655 5652 5653 5653 5656 5658 5660 5658 5658 5658 5662 5664 5665 5665 5666 5668 5669 5671 5672 5672 5672 5672
5654 5653 5651 5650 5649 5648 5646 5647 5647 5645 5645 5645 5645 5644 5644 5644 5644 5645 5645 5644 5644 5646 5646 5646 5645 5646 5648 5649 5651 5651 5653 5655 5656 5657 5659 5660 5662 5662 5663 5663 5663 5662 5663
5646 5643 5641 5640 5640 5638 5637 5637 5637 5638 5637 5637 5637 5638 5639 5636 5634 5636 5638 5636 5635 5637 5638 5639 5640 5642 5643 5644 5645 5645 5645 5645 5647 5649 5652 5654 5655 5654 5654 5654 5653 5652 5651
5639 5637 5635 5633 5632 5631 5629 5629 5629 5629 5628 5629 5629 5630 5630 5630 5629 5628 5629 5632 5629 5629 5630 5631 5632 5634 5634 5635 5637 5638 5638 5640 5642 5644 5645 5645 5645 5644 5644 5644 5643 5641 5640